Regional Weather Roundup
Issued by NWS Grand Forks, ND

Home | Current Version | Previous Version | Text Only | Print | Product List | Glossary Off
Versions: 1 2 3 4 5 6 7 8 9 10 11 12 13 14 15 16 17 18 19 20 21 22 23 24 25 26 27 28 29 30 31 32 33 34 35 36 37 38 39 40 41 42 43 44 45 46 47 48 49 50

000
ASUS43 KFGF 280110
RWRFGF
PRAIRIE TO PINES  WEATHER ROUNDUP
NATIONAL WEATHER SERVICE EASTERN NORTH DAKOTA/GRAND FORKS ND
800 PM CDT MON JUL 27 2015

 **SATELLITE DATA USED TO AUGMENT SKY COVER AT AUTOMATED STATIONS**
 *****  WEATHER ACROSS EASTERN NORTH DAKOTA  *****

CITY           SKY/WX    TMP DP  RH WIND       PRES   REMARKS
GRAND FORKS    SUNNY     84  71  65 SE15      29.73F
GRAND FRKS AFB SUNNY     83  74  72 SE12      29.74S HX  90
GRAND FRKS NWS   N/A     82 N/A N/A SE16        N/A
DEVILS LAKE    SUNNY     82  70  65 SE16G22   29.71F
FARGO          PTCLDY    86  70  58 SE18G25   29.75F HX  90
WAHPETON ARPT  CLEAR     82  70  65 SE13G21   29.77F
$$

 ***** WEATHER ACROSS CENTRAL AND WESTERN NORTH DAKOTA  *****

CITY           SKY/WX    TMP DP  RH WIND       PRES   REMARKS
BISMARCK       CLOUDY    86  72  62 SE13      29.65S HX  92
MINOT          PTSUNNY   87  68  52 SE9       29.62F HX  90
JAMESTOWN      SUNNY     83  73  72 SE21G26   29.71F
MINOT AFB      PTSUNNY   83  75  76 SE9       29.61F HX  90
GARRISON         N/A     81  68  64 S9        29.64R
WILLISTON      PTSUNNY   89  67  47 E14       29.53F HX  92
DICKINSON      CLOUDY    81  58  45 S10       29.61R
HETTINGER      LGT RAIN  78  60  53 SE10      29.67R
$$

 *****  OTHER AIRPORT OBSERVATIONS IN OUR AREA  *****

CITY           SKY/WX    TMP DP  RH WIND       PRES   REMARKS
WALHALLA       FAIR      81  75  83 MISG      29.75F
GRAFTON AIRPOR FAIR      82  73  74 SE12      29.76R
VALLEY CITY AR FAIR      84  75  74 SE17G25   29.73F HX  92
CANDO          NOT AVBL
CAVALIER APRT  FAIR      82  73  74 SE7       29.75F
GWINNER        FAIR      84  77  79 SE16      29.75S HX  94
ROLLA          MOCLDY    77  73  88 SE13      29.74F
 ***** THE ABOVE OBSERVATIONS ARE NON NWS ARE NOT QUALITY
       CONTROLLED AND MAY MIS-REPORT RAIN FOR SNOW...
$$

  *****  WEATHER ACROSS NORTHERN MINNESOTA  *****

CITY           SKY/WX    TMP DP  RH WIND       PRES   REMARKS
FLAG ISLAND    CLEAR     82  70  65 S7        29.83S
WARROAD        CLEAR     84  73  70 SE6       29.83S HX  91
ROSEAU         CLEAR     82  73  74 SE9       29.82S
HALLOCK        SUNNY     82  72  69 SE9       29.77R
THF RVR FALLS  PTCLDY    81  72  74 SE8       29.80S
BAUDETTE       PTCLDY    82  67  60 S10       29.85S
WASKISH        CLEAR     81  68  65 SE5       29.86S
CROOKSTON      CLEAR     82  73  74 SE8       29.77F
STEPHEN NDAWN    N/A     82  73  74 SE7         N/A
GREENBUSH NDAW   N/A     82  72  69 S6          N/A
$$
  *****  WEATHER ACROSS CENTRAL AND WEST MINNESOTA  *****

CITY           SKY/WX    TMP DP  RH WIND       PRES   REMARKS
FOSSTON        PTCLDY    81  70  69 CALM      29.83S
BEMIDJI        PTCLDY    80  70  71 SE9       29.86F
PARK RAPIDS    CLEAR     84  68  58 SE14      29.86S
ELBOW LAKE     FAIR      81  73  76 SE12G18   29.81S
WADENA         CLEAR     82  70  65 SE14      29.85S
DETROIT LAKES  CLEAR     82  68  61 S12G18    29.84R
MOORHEAD       PTCLDY    82  72  69 SE10      29.77F
FERGUS FALLS   PTCLDY    82  72  69 SE13G22   29.78S
MORRIS MN      CLEAR     82  72  69 SE15      29.80S
STAPLES        PTCLDY    82  70  65 S13       29.87R
$$
  *****  WEATHER ELSEWHERE ACROSS MINNESOTA  *****

CITY           SKY/WX    TMP DP  RH WIND       PRES   REMARKS
DULUTH         PTCLDY    78  64  61 E8        29.95S
INTRNTL FALLS  CLEAR     82  66  58 SE3       29.88S
ELY            CLEAR     82  52  34 S6        29.95S
CLOQUET        PTCLDY    81  64  57 SE5       29.94S
WHEATON        CLEAR     79  72  78 SE13      29.79R
BRAINERD       CLEAR     80  70  71 SE6       29.88S
HIBBING        CLEAR     81  65  58 SE7       29.92S
ALEXANDRIA     PTCLDY    80  72  76 SE15      29.86F
SAINT CLOUD    CLEAR     82  72  71 SE8       29.88S
MINNEAPOLIS    PTCLDY    83  72  69 SE8       29.89S
$$

  *****  WEATHER ACROSS SOUTH DAKOTA  *****

CITY           SKY/WX    TMP DP  RH WIND       PRES   REMARKS
SIOUX FALLS    PTCLDY    83  73  72 SE15G22   29.79S
BROOKINGS      CLEAR     81  70  69 SE13G18   29.81S
WATERTOWN      CLEAR     83  69  62 SE10      29.79S
HURON          CLEAR     84  76  76 SE14      29.70F HX  93
SISSETON         N/A     83  75  77 SE15G25   29.75S HX  90
ABERDEEN       SUNNY     85  71  63 SE15      29.71F HX  90
MITCHELL       CLEAR     85  77  77 SE14      29.72S HX  95
PIERRE         SUNNY     89  67  47 SE21G26   29.61F HX  92
MOBRIDGE       MOSUNNY   87  74  64 SE22      29.61F HX  95
RAPID CITY     CLOUDY    66  63  90 NE15      29.68R THUNDER
$$

  *****  SOME WEATHER IN NEARBY STATES *****

CITY           SKY/WX    TMP DP  RH WIND       PRES   REMARKS
GLASGOW MT     PTSUNNY   68  59  73 NW29      29.61R
GREAT FALLS MT LGT RAIN  51  50  96 W13       29.98S
CHEYENNE WY    MOSUNNY   87  42  20 W18G26    29.89R
SCOTTSBLUFF NE PTSUNNY   76  58  53 NE13      29.72S THUNDER
OMAHA NE       MOCLDY    80  70  71 SE17      29.84F
DES MOINES IA  MOCLDY    75  67  76 S9        29.89F
DAVENPORT IA   CLOUDY    80  73  79 SE6       29.96F
CHICAGO IL     CLOUDY    79  64  60 NE10      29.99R
EAU CLAIRE WI  CLEAR     82  67  60 SE7       29.94S
LA CROSSE WI   PTCLDY    83  69  62 SE7       29.93S
$$

  *****  SOME NATIONAL WEATHER *****

CITY           SKY/WX    TMP DP  RH WIND       PRES   REMARKS
LA GUARDIA NY  MOCLDY    79  66  64 S10G16    30.00R
RALEIGH NC     MOCLDY    82  70  66 SE6       29.98R
ATLANTA GA     MOCLDY    81  68  64 NW5       29.97S
NEW ORLEANS LA MOCLDY    87  72  60 S8        29.94R HX  93
OKLAHOMA CITY  CLEAR     89  71  55 S9        29.88R HX  95
ALBUQUERQUE NM PTSUNNY   90  45  21 S13       30.01S
SALT LAKE CITY MOSUNNY   76  38  25 N14G22    30.05S
LOS ANGELES CA MOSUNNY   73  63  70 W13       29.87F
BOISE ID       MOSUNNY   74  34  23 NW14G22   30.07R
SEATTLE WA     PTSUNNY   74  48  39 VRB6      30.21F
$$

*** WEATHER ACROSS MANITOBA...SASKATCHEWAN AND ONTARIO ***
                ***ONTARIO***

CITY           SKY/WX    TMP DP  RH WIND       PRES   REMARKS
GERALDTON      PTCLDY    81  66  61 SW7       29.93S
THUNDER BAY    PTCLDY    81  59  47 S3        29.94R
SIOUX LOOKOUT  MOCLDY    79  70  73 SE3       29.90R
TORONTO        MOCLDY    84  59  42 NW14      29.98R
BIG TROUT LK   CLEAR     81  55  41 W7        29.82R
PICKLE LAKE    MOCLDY    84  63  48 W9        29.88R
DRYDEN         CLEAR     84  63  48 SW5       29.89F
KENORA         PTCLDY    84  64  51 SE7       29.88R
$$
                *** MANITOBA***

CITY           SKY/WX    TMP DP  RH WIND       PRES   REMARKS
BRANDON        PTSUNNY   81  70  69 E13       29.74F
DAUPHIN        PTSUNNY   72  63  73 NE9G17    29.80F
ISLAND LAKE    NOT AVBL
PILOT MOUND      N/A     77  70  78 SE10        N/A
THE PAS        PTSUNNY   73  54  49 S3        29.87F
THOMPSON       PTSUNNY   73  55  53 W5        29.84R
WINNIPEG       MOSUNNY   84  70  61 SE14      29.78F
LYNN LAKE      PTSUNNY   77  50  38 SW7       29.82S
CHURCHILL      MOSUNNY   70  63  78 W7        29.72R
GILLAM         CLOUDY    75  57  53 W6        29.81R
$$
                ***SASKATCHEWAN***

CITY           SKY/WX    TMP DP  RH WIND       PRES   REMARKS
ESTEVAN        CLOUDY    81  70  69 E20G26    29.61F
KINDERSLEY     LGT RAIN  59  57  94 NE8       29.88R
LLOYDMINSTER   CLOUDY    63  54  72 NW7       29.92R
PRINCE ALBERT  LGT RAIN  64  61  88 N5        29.87F
REGINA         TSTM      63  59  88 NE24G32   29.68F
YORKTON        PTSUNNY   64  57  77 N10G17    29.78F
N. BATTLEFORD  LGT RAIN  59  57  94 N3        29.92R
LA RONGE       PTSUNNY   72  55  56 S5        29.85S
SASKATOON      CLOUDY    63  61  94 N10       29.87F
SWIFT CURRENT  LGT RAIN  61  61 100 N15       29.76F
$$
NOTE: THESE ARE AUTOMATED STATIONS WITH LIMITED QUALITY CONTROL
      "FAIR" INDICATES FEW OR NO CLOUDS BELOW 12,000 FEET WITH NO
      SIGNIFICANT WEATHER AND/OR OBSTRUCTIONS TO VISIBILITY.
      SKY/WX - SKY CONDITION AND SIGNIFICANT WEATHER.
      TMP - AIR TEMPERATURE.    DP   - DEWPOINT TEMPERATURE.
      RH  - RELATIVE HUMIDITY.  PRES - PRESSURE.
      HX  - HEAT INDEX.         WCI  - WIND CHILL INDEX.
$


USA.gov is the U.S. government's official web portal to all federal, state and local government web resources and services.